Location: Bessac
(44.9500°N, 4.4333°E)
Time: 19:05:50
(UTC+00:00)

Daily predictions for brighter satellites

Satellite Brightness Start Highest point End
(mag) Time Altitude Azimuth Time Altitude Azimuth Time Altitude Azimuth
Cosmos 1486 Rocket 4.2 17:54:44 10° NNW 17:59:56 54° ENE 18:05:07 10° SE
Cosmos 1515 4.2 17:56:55 10° N 18:00:30 36° ENE 18:04:02 10° SE
Okean 1 3.9 17:56:49 10° N 18:00:35 36° ENE 18:04:20 10° SE
USA 234 4.2 17:55:12 10° ENE 18:00:35 27° SE 18:05:56 10° S
Cosmos 1633 Rocket 3.2 17:57:39 10° S 18:01:58 56° E 18:06:19 10° NNE
Cosmos 2184 Rocket 4.0 17:55:57 10° S 18:02:02 67° E 18:08:12 10° NNE
Cosmos 1939 Rocket 4.1 17:59:11 10° S 18:02:52 45° W 18:06:36 10° NNW
SeaSat 1 3.3 17:59:19 10° NE 18:03:35 29° ESE 18:07:49 10° SSE
Cosmos 1707 Rocket 3.6 17:59:45 10° N 18:04:10 87° ENE 18:08:31 10° S
CZ-4 R/B 1.3 18:04:05 10° SSE 18:07:53 62° ENE 18:11:45 10° N
H-2A R/B 2.2 18:02:32 10° SSE 18:07:55 65° ENE 18:13:19 10° N
CZ-2C R/B 3.4 18:03:53 10° NNE 18:08:43 31° E 18:13:25 10° SSE
USA 305 4.5 18:06:25 10° WNW 18:10:07 27° NNW 18:13:49 10° NE
SAR-Lupe-4 4.2 18:08:02 10° NNE 18:11:19 33° E 18:14:35 10° SSE
IRS-1C Rocket 4.1 18:06:27 10° SSE 18:11:43 84° ENE 18:17:02 10° NNW
Gbstr 26 Del rocket 4.1 18:08:43 10° W 18:12:51 43° NNW 18:17:51 10° ENE
Meteor 1-20 Rocket 4.1 18:08:48 10° S 18:14:15 83° E 18:19:46 10° NNE
Cosmos 1302 Rocket 4.4 18:09:30 10° SSW 18:14:40 69° WNW 18:19:53 10° NNE
SL-4 R/B 3.0 18:12:34 10° NW 18:15:41 27° N 18:18:38 10° ENE
ATLAS CENTAUR R/B 1.6 18:20:00 10° S 18:23:18 35° ESE 18:26:40 10° NE
FALCON 9 DEB 3.9 18:20:35 10° NW 18:23:49 37° NNE 18:26:13 16° E
Cosmos 1354 Rocket 4.3 18:21:33 10° N 18:26:37 45° ENE 18:31:37 10° SE
Okean-O 2.6 18:23:16 10° SSE 18:27:42 85° ENE 18:32:09 10° NNW
Cosmos 44 Rocket 3.4 18:22:38 10° NW 18:27:55 87° ENE 18:33:06 10° SE
ERS-2 2.1 18:25:02 10° NNE 18:28:39 60° ESE 18:32:15 10° S
CSL-04 Rocket 3.8 18:23:41 10° SSE 18:29:06 56° ENE 18:34:29 10° N
Cosmos 1844 Rocket 3.0 18:24:53 10° NNW 18:30:16 46° ENE 18:35:36 10° SE
Cosmos 2084 Rocket 3.5 18:25:58 10° NW 18:30:18 69° NE 18:34:46 10° SE
CSL-04 Debris 4.2 18:25:05 10° SSE 18:30:25 61° ENE 18:35:50 10° N
SAR-Lupe-1 4.0 18:27:13 10° NNE 18:30:48 60° ESE 18:34:19 10° S
Cosmos 1666 3.7 18:30:19 10° SE 18:33:17 23° E 18:36:15 10° NE
Cosmos 1271 Rocket 4.4 18:31:06 10° NNW 18:34:34 37° W 18:38:02 10° SSW
HJ-1C 3.2 18:32:21 10° SSE 18:35:39 73° ENE 18:38:57 10° N
Cosmos 1503 Rocket 4.0 18:31:43 10° NNW 18:36:54 63° ENE 18:42:00 10° SSE
Cosmos 2341 Rocket 4.3 18:31:13 10° SSE 18:37:09 45° E 18:43:03 10° NNE
Meteor 1-5 Rocket 4.5 18:32:32 10° SSE 18:37:28 40° E 18:42:34 10° NNE
PSLV R/B 4.0 18:35:40 10° NNE 18:39:46 80° WNW 18:43:49 10° SSW
Cosmos 1470 Rocket 3.5 18:36:41 10° S 18:41:10 84° E 18:45:38 10° N
Cosmos 1844 4.0 18:36:29 10° NNW 18:42:05 48° ENE 18:46:58 13° SE
CZ-4B R/B 3.9 18:41:10 10° NNW 18:43:38 23° WNW 18:46:06 10° WSW
Cosmos 2360 Rocket 2.2 18:38:07 10° S 18:43:40 62° ESE 18:49:16 10° NNE
Ariane Rocket 4.0 18:42:04 18° ESE 18:44:40 27° ENE 18:48:55 10° N
Cosmos 2278 Rocket 3.8 18:43:37 10° N 18:47:03 16° NE 18:48:35 15° ENE
Cosmos 1500 3.0 18:48:10 10° S 18:51:54 85° E 18:55:38 10° N
Cosmos 2333 Rocket 2.8 18:48:56 10° SSE 18:53:55 33° ESE 18:58:57 10° NE
Meteor 2-4 Rocket 3.7 18:48:31 10° N 18:54:22 74° ENE 19:00:18 10° SSE
Cosmos 1703 Rocket 3.6 18:50:15 10° N 18:54:35 55° ENE 18:58:51 10° SSE
Cosmos 2218 Rocket 4.4 18:49:51 10° SSE 18:55:45 41° E 19:01:40 10° NNE
SL-08 RB Rocket 3.6 18:51:47 10° SSE 18:56:17 87° ENE 19:00:52 10° NNW
Cosmos 1689 Rocket 3.2 18:54:21 10° N 18:57:07 43° WNW 18:59:52 10° SSW
Meteor 2-12 Rocket 4.5 18:51:14 10° S 18:57:18 84° W 19:03:26 10° N
Cosmos 1933 Rocket 3.5 18:57:43 10° S 19:02:05 88° WNW 19:06:29 10° N
BREEZE-M DEB (TANK) 4.1 19:02:14 10° SSW 19:03:36 23° S 19:03:36 23° S
Aureole 2 Rocket 3.1 19:02:56 10° NW 19:05:17 36° WSW 19:06:52 17° SSW
Resurs 01 Rocket 3.4 19:12:40 17° NE 19:12:40 17° NE 19:14:31 10° NNE
Cosmos 2242 Rocket 3.6 19:08:07 10° N 19:12:39 85° W 19:17:06 10° S
Cosmos 2322 Rocket 3.2 19:08:23 10° SW 19:13:46 47° WNW 19:19:12 10° NNE
Lacrosse 4 Rocket 2.5 19:11:43 10° S 19:14:29 30° SSE 19:14:29 30° SSE
Abrixas rocket 3.2 19:14:19 10° WNW 19:16:07 30° NNW 19:16:07 30° NNW
Cosmos 1959 Rocket 4.4 19:11:57 10° S 19:17:53 57° E 19:23:52 10° NNE
Helios 1A Rocket 4.2 19:14:56 10° S 19:18:45 41° W 19:22:36 10° NNW
SME Rocket 4.1 19:11:07 10° NNE 19:19:01 59° E 19:24:09 10° S
Cosmos 192 4.3 19:16:19 10° S 19:21:07 58° ESE 19:25:57 10° NNE
SJ-6B 2.8 19:22:30 47° SE 19:23:33 71° ENE 19:27:36 10° N
COSMOS 2428 3.0 19:18:36 10° S 19:23:54 42° ESE 19:24:51 39° E
GP-B 3.8 19:23:23 10° SSW 19:27:44 54° W 19:32:06 10° N
ASTEX 1 3.3 19:23:15 10° NNE 19:28:05 59° E 19:30:11 32° SSE
MOS 1 4.2 19:25:33 30° SE 19:28:23 65° ENE 19:34:01 10° N
Meteor 1-23 Rocket 4.5 19:24:48 10° N 19:30:08 44° ENE 19:30:27 43° E
Cosmos 2219 Rocket 2.1 19:25:23 10° S 19:30:49 57° ESE 19:36:19 10° NNE
Meteor 1-11 Rocket 3.6 19:25:26 10° S 19:31:06 66° E 19:36:41 10° NNE
MetOp-A 4.2 19:27:10 10° S 19:32:31 80° WSW 19:37:55 10° NNW
Cosmos 1241 Rocket 4.5 19:27:46 10° NNW 19:34:24 76° NE 19:36:55 40° SE
OBJECT-B 2.4 19:36:26 28° N 19:36:26 28° N 19:38:07 10° N
Resurs 1-3 4.0 19:38:47 48° NNE 19:38:47 48° NNE 19:42:20 10° N
SL-16 R/B 4.2 19:34:01 10° WSW 19:38:46 27° NW 19:43:32 10° N
SeaSat 1 3.6 19:36:31 10° NNE 19:41:12 44° NW 19:45:51 10° SW
SJ 16-02 2.8 19:37:10 10° N 19:39:34 26° NNE 19:39:34 26° NNE
Okean 1-7 3.9 19:37:31 10° NNW 19:41:45 49° W 19:45:45 11° SSW
USA 234 3.2 19:39:53 24° NE 19:44:06 90° ESE 19:50:40 10° SW
Cosmos 1066 Rocket 4.1 19:38:22 10° N 19:44:07 73° E 19:45:41 49° SSE
Meteor 1-13 Rocket 4.3 19:38:32 10° NNW 19:44:30 82° W 19:48:31 21° S
CZ-2C R/B 4.0 19:44:00 10° N 19:49:03 39° WNW 19:53:59 10° SW
IRS-1A Rocket 4.2 19:46:43 33° SSE 19:49:21 85° WSW 19:54:58 10° NNW
Cosmos 2322 3.7 19:45:06 10° SSW 19:50:50 81° WNW 19:56:36 10° NNE
USA 305 4.5 19:47:27 10° NW 19:50:56 26° N 19:50:56 26° N
BREEZE-M DEB (TANK) 3.0 19:48:29 10° WNW 19:51:09 52° N 19:51:09 52° N
SL-4 R/B 3.3 19:52:15 10° WNW 19:54:13 30° NW 19:54:13 30° NW
Cosmos 1869 Rocket 4.1 19:52:09 10° SSW 19:56:24 56° WNW 20:00:44 10° N
SL-8 Rocket 4.5 19:52:42 10° SSW 19:58:51 59° WNW 20:04:59 10° N
Gbstr 26 Del rocket 4.2 19:56:01 10° WNW 20:00:38 42° N 20:00:59 42° NNE
ATLAS CENTAUR R/B 3.3 19:59:19 10° W 20:02:15 23° NW 20:03:10 21° NNW
Cosmos 1844 Rocket 4.4 20:09:13 10° NW 20:13:53 28° WSW 20:17:54 13° SSW
SL-08 R/B 4.5 20:11:58 36° S 20:14:50 88° W 20:21:22 10° N
SPOT 3 Rocket 4.1 20:18:38 53° N 20:18:38 53° N 20:22:36 10° NNW
Ariane Rocket 4.0 20:22:15 36° SW 20:23:25 42° W 20:28:16 10° NNW
Cosmos 2360 Rocket 4.3 20:23:33 10° WSW 20:28:07 25° NW 20:32:43 10° N
Cosmos 2278 Rocket 2.9 20:26:26 10° NNW 20:30:28 47° NNW 20:30:28 47° NNW
Cosmos 2333 Rocket 3.3 20:32:41 10° SW 20:38:03 41° NW 20:43:28 10° NNE
Resurs 01 Rocket 4.0 20:50:14 20° NW 20:50:14 20° NW 20:51:46 10° NNW
Cosmos 1943 Rocket 4.3 20:46:43 10° N 20:48:24 17° N 20:48:24 17° N
Lacrosse 4 Rocket 4.4 20:50:38 10° WSW 20:50:57 12° WSW 20:50:57 12° WSW
COSMOS 2428 4.2 21:03:09 10° WSW 21:14:01 - NNE 21:07:14 31° WNW
Cosmos 2219 Rocket 4.1 21:10:30 10° WSW 21:15:08 26° NW 21:19:49 10° N
SJ 16-02 4.4 21:16:03 10° NW 21:16:35 13° NW 21:16:35 13° NW
USA 234 4.3 21:27:15 40° NNW 21:27:15 40° NNW 21:32:45 10° W
